Theta_e
346 345 344 344 343 344 342 341 343 343 345 346 347 349 346 347 347 348 349 346 341 339 339 343 346 350 353 350 348 349 348 348 348 347 347 347 344 342 342 343 341 339 342 346 346 347 349 346 345 346 344 345 348 348 349 347 345 346 344 346 348 349 349 349 350 348 346 346 346 347 346 345 345 346 346 344 344 344 343 344 344 344 344 344 345
346 346 344 344 344 345 342 342 343 343 346 346 346 348 346 348 349 348 349 346 341 339 339 344 347 350 353 351 350 350 349 348 349 349 348 345 343 342 343 342 340 339 342 345 346 346 347 345 345 346 345 345 347 348 348 347 345 344 344 347 349 348 349 348 348 348 346 346 346 346 345 345 345 346 346 344 343 343 343 343 343 344 345 343 343
346 346 346 345 345 346 343 343 344 343 347 346 346 348 347 348 349 349 350 345 342 339 341 347 347 349 352 350 350 351 351 350 349 350 349 346 342 343 344 342 339 340 342 342 343 345 347 345 345 347 346 344 346 347 346 346 346 345 346 349 350 349 348 347 348 347 346 345 345 346 346 345 345 344 345 344 342 342 342 342 344 344 343 343 343
347 346 346 345 344 347 345 344 345 344 346 346 347 349 349 348 347 348 350 346 343 339 342 348 348 348 351 350 349 350 350 351 350 349 350 348 345 343 344 343 342 342 342 342 343 345 344 344 345 346 346 344 345 345 343 344 344 347 350 350 350 349 347 347 347 347 346 345 345 345 345 345 345 343 342 343 342 342 343 341 342 343 339 340 345
348 347 347 346 345 347 347 346 345 345 346 347 348 349 349 349 345 345 349 348 344 341 343 349 349 348 350 349 349 350 350 351 351 350 350 348 346 345 343 343 345 344 343 344 344 345 343 343 345 345 345 345 345 344 343 342 344 348 351 350 348 347 346 346 346 347 346 345 346 346 345 346 345 344 342 342 342 342 342 338 340 343 337 338 345
350 348 347 347 346 347 348 347 346 346 347 347 347 347 348 350 344 340 346 347 345 343 343 347 348 347 349 349 350 351 351 352 352 351 350 348 347 347 346 345 346 344 345 346 345 345 345 344 345 345 346 346 345 345 344 343 346 349 350 350 350 347 346 346 346 347 346 345 346 346 346 346 345 344 342 342 342 341 340 337 340 343 337 338 343
350 349 348 347 347 348 348 349 347 346 347 347 347 346 347 350 342 337 342 345 347 345 342 345 345 344 348 350 351 352 352 353 353 351 351 350 349 350 349 348 350 349 348 348 346 346 346 345 346 347 347 346 345 347 347 347 350 352 350 350 352 349 346 346 346 345 344 344 346 345 345 345 345 344 343 342 342 341 341 338 339 341 340 341 342
353 351 351 348 347 348 348 349 348 348 348 346 347 345 346 348 341 335 337 343 349 345 339 341 340 340 344 348 351 352 352 353 352 352 352 349 349 350 351 350 351 353 351 348 347 346 346 346 347 348 348 347 346 347 350 351 352 353 350 349 350 347 345 346 347 345 344 345 346 344 344 343 344 345 344 344 343 342 342 340 340 341 340 343 343
356 353 352 350 348 348 348 350 348 348 348 346 347 346 346 347 341 335 334 339 347 343 336 337 337 337 340 344 350 350 351 352 351 353 352 349 350 352 352 349 349 354 352 348 348 347 347 347 346 348 348 347 348 350 352 354 353 351 348 347 346 345 343 344 346 346 346 346 344 344 345 343 344 343 342 344 344 343 343 340 340 342 340 342 344
357 355 353 351 350 349 350 351 348 347 348 346 347 346 347 349 345 338 332 336 345 342 336 335 334 337 337 341 348 348 349 351 350 352 352 351 352 353 354 350 347 351 350 347 349 347 347 347 345 347 348 348 350 352 353 353 351 347 345 344 344 343 343 343 344 346 347 348 345 343 345 346 345 343 342 343 344 344 343 342 341 342 341 342 345
357 355 353 352 351 350 350 352 349 348 348 348 347 346 349 350 347 341 333 334 342 341 338 337 335 337 337 341 347 348 349 351 350 352 353 353 354 353 352 350 346 347 347 347 349 347 346 347 345 346 347 349 352 352 353 352 348 344 342 343 343 343 344 344 343 346 348 348 347 342 343 346 345 344 345 345 344 344 345 344 343 342 341 341 343
356 355 354 354 352 350 351 352 351 349 348 348 347 346 350 351 348 343 336 334 339 339 339 340 337 337 337 339 346 349 349 351 352 352 353 352 352 350 349 348 346 347 348 347 348 346 345 346 346 346 347 348 351 351 352 350 349 348 344 342 344 344 345 345 343 346 348 347 346 345 344 346 345 343 344 343 343 346 346 345 344 343 343 342 341
357 356 355 355 352 350 351 351 352 351 349 349 348 346 351 353 349 343 337 334 336 337 337 340 339 337 337 337 343 347 349 352 353 353 353 351 349 350 348 347 346 348 349 346 345 346 345 346 346 346 346 347 348 349 349 347 348 351 347 343 344 343 344 344 342 346 349 346 344 346 346 346 345 343 343 342 341 343 343 345 346 344 344 343 342
357 356 357 357 353 351 352 351 351 351 350 349 348 347 351 355 352 345 337 334 335 335 335 339 340 338 337 337 339 342 346 350 352 354 354 351 348 350 351 348 346 346 347 345 345 346 345 345 346 346 347 346 346 347 349 348 347 349 347 344 345 344 342 342 341 345 349 346 346 348 347 346 346 344 343 343 342 342 344 347 346 345 347 344 341
356 355 357 358 355 351 351 352 351 350 350 350 350 349 351 355 355 348 339 336 336 335 335 337 338 337 337 338 339 338 340 347 349 351 353 350 346 349 353 353 351 348 348 347 347 348 345 344 345 347 347 346 346 346 347 349 348 347 345 346 349 347 342 341 341 344 349 347 347 348 347 347 347 345 344 344 344 346 348 349 347 345 349 348 342
356 357 357 355 354 352 352 352 352 351 351 351 350 351 352 355 356 351 341 337 337 336 337 337 336 336 337 337 340 339 338 342 345 347 350 348 348 350 352 354 354 353 352 350 347 347 347 345 344 345 346 346 346 346 346 347 347 346 345 347 350 349 343 341 340 344 349 349 348 348 348 348 348 347 346 345 346 348 349 348 348 347 349 352 348
356 358 357 356 355 354 353 353 352 353 353 352 351 352 353 355 358 354 345 340 340 338 338 339 337 336 336 336 339 340 338 341 342 342 346 348 349 351 351 352 354 355 354 352 348 347 347 346 343 343 345 345 346 345 345 346 345 345 345 346 349 350 346 342 342 346 349 349 349 348 346 347 349 349 348 348 348 348 348 347 349 350 348 351 353
356 357 357 358 357 354 354 353 352 353 354 352 351 351 353 355 357 356 350 345 343 341 341 342 341 339 337 333 336 338 338 341 342 340 344 350 349 349 351 352 353 355 355 354 352 348 346 345 344 343 344 344 346 346 345 346 346 346 345 345 349 349 346 344 346 349 351 350 350 349 346 345 347 348 348 348 348 347 346 345 348 350 347 347 352
355 356 357 358 356 353 353 353 353 354 353 353 351 350 352 355 358 359 356 350 346 347 347 345 343 345 342 333 334 337 336 341 347 344 344 349 349 347 350 352 353 355 355 355 353 349 344 342 343 346 347 343 343 346 346 346 348 348 345 345 348 349 347 347 346 349 354 352 350 351 349 347 348 349 348 348 349 348 346 345 347 351 349 347 349
354 355 357 358 356 354 353 353 354 354 354 353 352 351 351 354 357 359 358 357 354 353 353 351 348 350 350 340 334 336 335 340 349 348 345 347 349 347 348 350 352 353 354 356 355 351 347 342 340 345 349 345 342 344 345 345 347 348 345 345 347 347 346 348 346 349 354 355 353 352 349 347 348 349 349 349 349 350 349 347 348 352 351 347 344
352 353 355 358 358 357 355 353 353 353 353 353 352 352 351 353 355 357 358 359 358 355 354 355 353 353 354 348 338 336 335 340 348 350 348 347 347 347 346 347 350 351 352 354 354 353 351 347 343 346 350 350 346 344 344 344 345 346 346 347 349 348 344 345 345 348 354 355 354 353 351 349 347 346 347 347 348 349 350 348 348 351 351 348 344
348 349 350 354 357 357 355 353 352 352 353 354 353 352 351 353 356 356 356 357 358 356 354 355 355 354 354 352 346 339 334 338 346 349 349 349 348 348 346 346 348 349 350 351 350 352 353 351 350 350 351 351 350 346 346 346 344 344 345 346 350 349 345 344 344 344 349 354 355 353 350 352 351 349 347 348 349 350 349 348 347 348 349 348 348
344 345 345 348 353 355 355 353 352 352 352 353 353 353 353 354 356 356 355 354 356 357 354 353 354 354 354 354 354 349 340 340 346 348 349 349 349 348 347 346 347 347 348 349 348 349 351 352 353 353 351 351 351 349 347 349 348 344 342 345 351 351 346 345 346 344 343 348 352 351 348 349 352 353 352 350 351 351 350 349 348 347 348 348 350
341 341 341 344 349 353 354 353 353 353 353 352 352 353 354 354 354 354 354 354 354 356 355 354 354 353 352 352 354 354 350 348 349 348 348 349 349 349 348 347 347 347 347 348 348 348 348 348 350 352 351 350 351 350 346 347 350 348 343 344 351 353 348 344 344 344 343 343 344 346 346 349 352 356 356 353 350 349 349 350 349 349 349 349 351
338 339 340 341 345 348 349 351 352 352 353 354 352 352 353 353 353 354 354 355 355 355 356 355 351 348 348 350 351 353 354 354 352 349 347 348 348 349 349 348 347 347 347 347 347 348 349 347 346 347 348 346 349 349 344 343 349 349 344 343 346 349 349 346 343 342 343 343 342 344 345 347 350 352 353 353 350 348 348 349 349 349 350 349 350
336 338 339 339 340 342 343 344 346 347 350 352 352 353 353 352 352 353 353 353 353 353 354 354 352 349 345 347 350 350 351 352 351 349 347 347 347 346 348 348 347 346 346 346 347 347 349 349 346 343 343 342 343 346 342 340 346 351 347 342 341 342 341 341 340 338 339 338 339 340 342 345 347 348 349 352 353 352 350 349 350 351 351 351 351
334 336 336 337 337 339 339 339 340 342 344 346 347 349 352 353 352 352 352 353 352 352 351 351 352 353 351 350 351 351 350 350 350 349 346 345 345 345 345 347 347 347 345 345 347 347 347 347 346 343 342 341 340 342 342 338 341 350 352 347 342 340 338 334 333 332 332 333 335 336 337 340 342 343 344 347 353 355 353 351 351 352 352 352 353
333 334 334 335 335 336 337 338 340 341 342 344 346 347 348 350 351 351 352 353 353 353 353 351 349 351 353 353 353 353 351 349 349 349 347 346 345 344 344 344 345 347 346 344 344 346 346 346 346 343 341 341 340 339 340 338 336 342 350 351 347 344 343 341 337 334 334 338 342 343 343 343 342 342 341 341 345 351 353 352 350 352 353 353 352
331 331 333 334 333 333 334 335 338 341 343 346 348 347 345 346 350 351 351 352 353 353 354 353 352 351 351 351 352 353 352 350 349 348 348 347 346 345 345 344 344 345 346 345 343 344 346 346 347 346 343 344 345 342 338 335 333 333 339 347 349 347 347 347 346 345 342 343 345 346 347 347 347 346 345 342 342 344 348 350 350 352 353 353 353
328 329 330 332 332 333 332 332 333 335 339 342 344 344 342 344 347 350 350 351 351 351 352 352 353 353 353 352 351 352 352 352 350 349 350 350 349 347 346 345 345 345 344 345 344 342 344 345 347 348 346 346 348 348 342 335 332 330 330 334 341 345 347 347 346 347 347 347 347 347 346 346 345 346 346 346 344 342 341 343 346 350 352 352 352
328 327 327 328 330 330 331 331 331 330 331 334 337 339 340 343 345 347 348 348 348 350 350 350 352 353 354 353 352 352 353 352 351 350 351 352 352 351 349 347 347 347 345 345 345 344 343 343 346 348 349 348 348 348 347 341 335 332 329 328 331 337 342 345 344 344 345 346 345 346 346 345 344 344 344 344 344 343 338 335 335 339 342 344 346
327 327 327 327 327 327 327 329 330 329 329 330 331 333 337 341 343 344 345 346 346 347 348 349 350 351 352 352 352 353 353 353 353 352 352 353 353 352 352 350 349 348 346 346 346 346 345 343 344 345 348 350 350 348 346 344 340 336 334 331 329 330 334 338 341 342 342 343 341 341 342 343 343 343 342 342 342 341 338 334 331 331 332 334 336
326 326 326 326 326 326 325 325 325 326 328 329 329 329 331 336 340 343 343 343 344 345 346 347 348 349 349 350 351 352 353 353 353 353 352 353 354 354 353 351 350 350 348 347 347 348 348 346 345 345 346 347 349 349 346 345 343 340 338 336 334 332 331 333 337 340 340 341 341 340 341 341 340 340 340 341 341 340 339 338 336 334 331 330 330
325 325 325 325 325 325 325 325 323 323 323 325 327 330 330 332 336 340 341 341 341 342 344 345 346 346 346 347 349 350 350 351 352 352 352 353 354 355 354 352 351 350 351 351 350 349 349 349 348 346 346 346 347 348 347 345 344 342 341 340 338 337 335 334 336 340 342 342 342 342 342 341 339 337 337 338 339 341 341 340 340 339 335 331 329
325 325 324 324 324 324 324 325 324 323 322 322 323 327 330 330 332 335 336 335 333 333 339 344 346 346 346 345 347 347 347 348 350 351 351 351 352 352 352 352 350 349 350 351 352 352 351 352 352 351 350 349 347 348 348 347 346 345 344 343 342 341 340 338 337 338 340 342 342 344 344 343 342 339 336 336 336 338 340 340 340 339 336 332 329
323 324 324 323 322 323 324 324 324 323 323 323 322 323 326 326 328 332 334 333 328 326 331 337 341 345 346 345 345 345 345 346 347 348 348 348 349 350 350 351 351 350 351 350 350 351 350 350 352 353 354 353 352 350 349 348 348 347 347 346 345 345 345 344 342 339 338 337 338 339 341 343 342 340 338 336 335 336 338 339 340 338 334 331 328
322 322 323 322 321 322 323 323 324 323 322 322 322 323 323 321 323 328 332 333 331 326 325 326 329 335 341 343 344 344 345 346 346 346 346 347 349 350 349 350 351 352 352 352 351 350 349 349 350 352 354 356 356 354 353 350 349 349 349 349 348 348 348 348 347 345 341 338 337 335 335 335 336 336 335 334 335 337 338 338 339 340 339 337 335
321 321 323 321 319 320 322 322 323 323 322 322 322 323 323 321 320 324 327 329 329 324 321 320 321 324 328 332 336 340 342 344 345 346 347 348 349 351 350 350 351 352 353 353 352 351 350 350 352 353 354 356 357 357 356 355 353 351 350 350 349 349 350 349 350 349 347 346 345 343 340 337 334 331 331 331 332 336 339 338 337 340 341 341 341
320 321 321 319 318 320 321 322 322 321 321 322 322 323 324 320 317 322 325 326 325 320 315 316 317 318 320 321 323 327 330 334 339 343 347 349 349 349 350 350 350 351 352 352 353 352 352 353 354 355 355 356 357 357 357 356 356 355 354 352 351 350 351 350 350 350 349 349 349 349 348 346 343 338 335 333 333 335 336 336 338 342 344 342 340
320 319 318 318 319 320 320 320 321 320 320 322 322 323 325 320 317 321 325 325 324 319 314 314 314 315 316 317 319 321 322 324 329 335 340 346 349 349 349 349 349 350 350 351 353 353 353 353 355 355 355 355 355 355 355 356 356 356 355 355 354 353 352 351 351 350 350 350 350 350 351 350 350 348 346 343 341 340 339 338 339 343 343 340 339
319 317 317 318 319 320 320 320 320 319 320 321 321 322 323 320 318 321 324 325 323 319 314 313 314 313 314 315 317 320 321 323 326 328 332 339 344 346 346 347 348 349 350 351 353 354 354 354 354 354 354 355 354 354 355 354 355 356 356 356 356 355 354 353 353 352 351 351 351 351 351 351 351 351 350 350 349 348 347 346 345 344 342 340 343
318 317 318 318 319 319 319 319 319 318 319 320 320 321 320 318 318 321 322 322 321 317 314 314 313 313 313 313 314 316 318 320 322 324 328 333 337 340 340 341 343 346 347 347 348 349 350 352 353 353 353 354 354 354 354 352 352 354 355 355 355 355 355 355 355 354 354 353 352 352 352 352 352 352 352 352 352 352 352 352 351 349 347 348 349
318 318 319 318 318 319 318 317 318 319 319 320 319 319 318 318 319 322 321 319 317 314 313 313 313 313 314 313 313 313 314 316 318 320 323 326 329 331 332 333 337 339 339 338 340 343 345 347 349 351 352 353 353 353 353 352 351 352 353 354 355 356 356 355 354 354 355 356 355 355 354 354 354 355 355 355 355 355 355 355 354 353 352 353 353
318 318 319 318 318 318 318 317 318 319 319 319 319 320 320 320 321 321 319 316 313 312 313 314 314 313 313 312 312 313 313 314 315 316 319 321 323 324 325 326 330 333 334 336 338 339 341 343 345 347 349 351 352 352 351 351 352 353 352 353 354 355 356 356 354 354 355 356 356 356 356 356 357 357 357 358 358 357 357 357 356 356 355 355 355
318 319 317 316 316 318 318 318 319 319 319 319 319 319 320 321 320 318 315 316 317 318 318 317 314 312 312 312 313 314 315 315 315 317 320 322 321 321 322 323 324 326 329 331 332 335 339 342 344 345 346 347 349 351 351 353 354 354 354 354 355 355 354 355 355 355 355 356 356 356 356 356 357 357 357 358 359 359 359 358 358 357 357 357 357
318 318 316 314 316 318 318 318 319 317 316 317 317 318 319 320 319 318 317 319 322 322 320 317 315 313 314 314 313 313 313 313 313 315 317 318 319 320 322 325 328 329 331 333 335 339 343 346 347 347 345 345 348 350 351 353 353 353 354 354 355 354 354 354 355 356 356 356 355 355 355 356 357 356 356 357 357 358 358 359 359 358 358 358 357
317 317 316 316 317 317 317 318 317 314 312 312 314 315 316 316 316 318 320 322 322 322 322 321 318 314 313 314 315 314 314 313 313 314 315 317 320 322 327 333 338 339 341 343 344 345 347 348 349 348 346 346 348 349 351 351 351 351 352 352 353 354 354 354 355 356 356 356 355 355 355 354 354 355 355 356 357 357 357 358 358 358 358 358 357
317 316 316 316 316 316 316 317 316 314 312 311 310 312 313 315 316 318 321 321 320 320 322 322 320 317 317 319 321 321 321 320 320 320 322 323 323 324 328 334 337 337 338 337 337 337 339 341 342 342 343 346 349 350 351 352 351 350 350 351 353 354 354 354 354 354 354 354 355 354 354 353 354 355 355 356 357 357 357 357 357 357 357 357 357
316 316 315 315 315 315 315 315 315 315 315 314 313 313 314 316 318 318 319 319 319 320 320 321 321 322 323 323 324 325 325 325 325 326 327 327 326 327 329 330 329 329 330 328 325 322 321 322 323 325 329 335 340 342 344 347 351 353 354 354 354 354 353 352 351 352 353 353 353 353 353 353 354 355 355 356 357 357 357 356 356 356 356 356 357
315 315 314 314 314 314 314 315 315 315 316 316 315 314 315 316 317 317 318 318 319 319 318 318 320 321 321 322 322 322 322 321 322 323 325 326 326 327 328 327 325 324 323 320 316 313 313 314 314 316 318 322 325 327 329 332 337 343 349 352 353 353 352 348 344 347 352 353 353 353 352 352 353 355 354 354 354 355 355 356 356 356 356 356 355
314 314 314 314 314 314 314 314 314 314 314 314 314 314 315 315 315 315 316 316 316 316 316 317 319 321 321 321 322 321 321 321 321 321 322 322 321 318 317 317 316 315 314 314 314 317 319 318 316 314 316 318 319 321 322 323 325 327 331 334 338 341 342 339 339 343 347 347 349 352 353 353 354 355 355 354 354 354 355 356 357 356 356 356 356
Wind_Speed
25 25 25 23 23 23 23 22 21 21 22 23 23 21 21 19 18 20 18 17 17 17 17 16 16 15 14 13 11 10 10 10 10 8 8 8 8 8 8 9 11 11 11 11 11 10 9 10 9 8 10 11 10 9 8 8 9 10 10 9 8 8 9 8 5 2 3 4 5 3 4 4 2 2 4 2 3 3 3 5 6 2 1 2 3
26 25 26 24 24 24 23 23 22 23 23 23 23 22 21 20 19 20 19 18 18 18 17 16 16 16 14 13 11 9 10 10 9 9 8 7 7 7 7 9 11 12 11 11 11 10 9 10 11 10 10 10 9 9 8 8 9 9 9 8 7 8 7 5 4 4 4 4 5 4 3 4 1 1 3 2 3 4 2 4 6 5 1 3 1
27 26 26 25 25 25 24 24 23 23 24 23 23 22 22 21 21 21 20 19 18 18 18 15 14 14 13 13 11 9 9 9 7 8 7 6 7 7 6 9 10 11 11 10 10 9 8 10 11 10 9 10 10 9 9 9 9 9 8 7 7 8 5 3 4 6 5 2 4 5 3 3 2 2 4 5 4 4 4 3 5 6 3 0 4
28 27 27 26 26 26 25 24 23 23 23 23 23 23 22 23 23 23 20 19 19 19 18 16 14 14 13 13 12 9 10 10 8 8 7 6 7 6 6 8 10 11 11 10 9 8 8 9 9 9 9 10 9 8 10 9 9 9 7 6 8 8 5 3 4 5 5 5 3 3 3 0 1 3 4 7 5 3 5 3 3 5 3 1 2
27 28 27 27 27 26 26 25 24 24 23 24 24 23 22 23 24 24 21 20 19 19 19 18 16 15 15 14 12 12 12 12 12 10 7 5 5 6 5 6 8 9 10 9 8 8 9 9 9 9 9 10 9 8 9 9 9 8 6 7 10 10 7 5 4 3 3 7 5 2 2 1 0 3 3 6 3 3 5 2 4 6 1 1 3
26 28 27 27 27 26 26 25 25 24 24 24 24 23 22 22 24 24 22 21 20 19 20 20 19 18 18 16 15 15 14 14 14 12 10 8 7 7 6 5 6 7 8 8 7 8 8 9 10 10 10 10 10 9 9 9 9 7 7 8 9 10 9 6 5 3 4 7 6 4 4 2 3 6 4 2 1 4 6 3 6 6 2 2 6
24 26 26 27 27 26 26 26 26 25 24 24 23 22 22 22 23 23 23 21 20 20 20 21 20 19 19 18 16 16 16 14 13 13 12 11 9 9 8 7 7 7 8 9 8 8 9 9 10 10 10 10 10 10 9 8 8 8 9 8 7 9 10 9 6 3 5 6 5 3 3 2 3 5 4 3 4 5 6 4 5 5 2 1 5
22 24 25 26 27 27 26 26 25 25 24 24 24 23 24 24 23 23 23 22 20 20 21 21 20 19 20 18 16 15 14 13 13 12 11 11 10 9 10 11 11 10 10 10 10 10 10 10 10 10 10 10 10 10 9 8 8 9 10 9 8 8 11 12 9 4 4 3 5 5 3 3 4 2 2 3 3 3 4 3 4 5 4 2 3
20 23 24 25 26 27 27 26 25 24 24 25 24 24 25 25 24 23 23 22 21 21 21 21 19 19 19 18 16 14 12 11 12 12 11 12 13 12 11 11 13 12 10 10 10 11 11 10 11 10 10 11 10 10 9 8 10 9 8 9 8 8 9 12 11 9 6 1 5 9 6 5 3 1 3 3 0 1 3 4 4 5 5 4 6
19 21 24 23 24 26 26 26 25 24 24 24 24 24 25 26 25 24 24 23 22 21 22 22 19 18 19 18 17 15 13 12 12 12 12 14 15 15 13 11 11 12 11 11 10 10 10 10 10 10 10 11 11 10 9 9 9 8 7 8 9 8 7 9 10 11 9 5 2 7 8 5 3 3 3 2 1 1 1 1 5 7 4 4 5
19 22 24 21 22 25 25 25 25 24 24 24 25 24 25 27 26 25 25 24 23 22 22 22 20 19 20 19 18 17 16 14 14 14 14 15 16 15 14 11 10 11 11 10 10 10 10 10 10 10 10 11 10 10 10 8 7 8 8 8 8 8 7 7 9 10 10 8 2 4 8 6 4 3 1 3 4 0 3 2 3 7 6 4 4
19 22 23 20 24 26 24 25 25 24 25 25 25 25 26 27 27 27 26 25 24 22 22 22 21 20 20 20 19 18 17 15 15 16 16 16 16 14 13 12 10 11 11 11 10 11 11 10 10 10 11 11 10 10 10 9 8 7 8 8 8 8 8 7 9 9 8 8 5 5 6 4 3 2 1 4 4 2 1 2 2 4 4 2 3
19 23 22 22 28 27 24 27 27 24 25 26 25 25 27 27 27 27 27 26 25 23 22 22 21 21 20 20 19 19 18 17 16 16 15 15 15 14 12 12 12 12 11 11 11 12 11 10 10 10 10 10 11 11 10 10 10 8 7 9 8 8 9 8 8 8 7 8 7 4 3 2 2 2 2 4 4 3 2 3 2 2 1 1 3
19 23 21 20 27 28 26 29 29 26 24 26 27 27 27 27 28 28 27 26 26 24 23 22 21 21 19 19 19 19 19 18 17 16 15 15 15 14 12 11 12 11 11 10 10 11 11 10 10 10 9 9 10 10 10 10 11 9 8 9 8 7 8 8 8 8 8 9 8 7 7 4 4 4 3 4 3 2 1 2 1 5 2 3 5
18 20 18 18 24 29 30 29 30 29 24 24 27 27 29 28 27 29 28 26 26 24 23 23 22 21 20 19 19 19 19 19 17 16 15 15 15 14 13 12 12 11 10 10 11 11 11 10 10 10 9 9 9 9 10 11 11 9 9 10 8 7 8 8 9 8 7 8 8 9 9 5 4 6 4 3 4 3 3 1 2 6 4 1 4
18 18 17 18 23 28 30 29 30 31 25 24 27 25 27 29 28 28 28 26 26 25 23 23 23 22 21 20 19 19 19 19 18 17 16 15 14 13 13 13 13 12 11 11 12 12 11 11 10 10 10 9 9 9 9 11 11 8 9 9 8 7 7 7 9 9 7 7 7 9 10 8 6 6 4 3 4 6 7 4 1 5 5 1 2
17 18 18 19 22 25 27 28 31 31 25 25 28 22 20 27 29 27 27 26 25 24 23 23 23 23 22 21 20 20 19 20 19 19 17 15 15 14 13 13 13 14 13 12 12 12 11 11 10 10 10 10 9 9 9 9 9 8 8 8 8 8 7 7 8 9 9 8 7 7 9 11 10 9 7 5 4 6 8 8 5 3 5 3 1
13 16 16 18 21 23 25 27 28 29 27 25 28 23 17 22 27 26 26 26 25 24 23 23 23 23 23 22 22 21 20 20 19 19 17 16 16 16 14 13 14 14 13 12 12 13 12 11 11 10 10 10 10 9 9 9 9 8 8 8 8 8 8 7 7 7 8 9 9 6 7 10 10 8 8 7 5 7 8 9 7 2 6 6 4
9 14 14 15 19 22 24 23 22 25 26 24 25 25 20 20 25 25 25 25 24 23 23 23 22 22 22 22 23 22 21 20 19 18 18 18 17 17 16 15 14 14 14 14 14 13 13 12 12 12 11 11 11 10 9 10 9 8 9 9 9 9 8 8 7 7 7 7 9 10 9 9 9 8 7 8 7 7 6 7 9 5 9 8 7
5 11 14 12 13 18 21 21 20 21 22 21 21 23 24 23 24 23 22 22 23 22 22 22 22 21 21 21 22 23 22 21 21 19 19 19 18 18 17 16 15 15 16 16 15 13 13 14 13 13 13 11 11 11 10 10 10 9 10 9 8 8 8 8 8 7 7 7 8 10 11 10 10 11 11 12 11 7 6 7 9 7 10 11 9
14 8 7 8 10 15 19 21 23 21 20 20 20 21 23 24 23 22 21 21 22 22 21 21 21 21 21 20 20 22 23 23 22 21 21 21 20 19 18 17 17 16 16 17 16 14 13 14 13 13 13 12 12 12 12 11 11 11 11 10 9 10 9 9 9 8 8 9 9 9 9 9 9 11 11 12 12 10 9 9 9 9 10 11 9
13 14 12 9 10 12 16 20 23 22 19 18 19 20 23 23 22 22 22 22 23 24 23 23 22 21 21 21 21 21 23 24 24 23 22 21 21 21 19 18 18 17 17 17 17 16 15 14 14 13 13 13 13 13 13 13 12 12 12 11 11 11 10 10 10 10 10 10 9 9 9 9 9 9 9 10 9 8 9 10 9 9 10 9 8
11 13 15 15 14 12 13 16 20 21 18 18 21 23 23 23 23 22 23 23 24 25 25 25 25 24 23 22 22 22 22 23 24 23 23 21 21 21 21 20 19 18 19 18 18 17 17 16 15 15 15 15 14 15 14 14 14 13 13 12 11 11 11 11 11 10 10 10 11 10 10 9 9 8 9 9 9 10 10 10 10 10 9 8 8
14 13 16 20 21 17 14 14 15 15 15 17 22 25 25 25 24 22 23 23 22 23 25 26 27 27 26 22 22 24 23 23 24 23 24 22 21 21 21 21 20 19 19 20 19 18 19 19 18 18 17 17 16 16 15 15 15 15 14 14 13 13 13 12 12 11 11 11 11 11 10 10 9 10 12 12 11 11 13 13 12 11 11 10 10
15 15 16 21 25 23 19 15 13 11 11 12 16 20 21 21 22 22 22 23 24 24 26 29 28 28 27 24 23 25 24 23 23 22 23 23 21 21 21 21 21 19 19 20 20 20 19 20 20 21 20 19 19 18 17 16 16 16 15 15 15 15 14 13 13 12 12 12 12 12 12 11 11 12 14 13 11 11 13 15 15 14 15 15 16
17 17 16 18 21 23 22 19 15 13 13 12 9 11 13 15 18 20 21 23 23 23 26 29 28 26 28 27 25 25 25 23 23 22 21 21 22 21 21 21 21 21 20 19 20 21 21 21 21 21 21 21 21 20 19 17 16 16 16 16 15 15 15 14 13 13 12 12 12 12 12 13 13 13 13 13 12 12 12 14 15 14 15 16 16
18 19 17 16 16 16 17 17 16 15 16 16 12 7 8 15 17 16 17 17 13 15 20 24 24 24 25 25 24 25 23 19 19 22 21 20 20 20 20 21 21 21 21 20 19 20 21 22 22 22 21 21 22 22 21 20 18 17 16 16 16 15 15 15 14 13 13 13 12 12 12 13 14 14 14 13 13 14 14 14 15 14 15 15 15
19 20 19 18 16 13 12 12 11 10 12 15 12 9 7 10 15 14 14 14 10 7 8 11 17 21 21 21 22 24 23 18 16 20 21 20 20 20 20 21 21 20 20 21 20 20 21 22 23 23 22 22 22 22 22 22 21 20 19 18 17 17 16 16 15 15 14 14 13 13 13 14 14 14 14 14 14 15 16 16 15 15 16 16 16
18 19 19 19 19 17 14 12 9 7 8 11 13 11 8 7 9 12 13 13 11 9 6 4 7 14 16 19 21 22 23 22 20 22 22 22 20 19 19 20 21 20 20 20 20 20 21 21 22 23 23 23 23 23 24 24 23 22 21 21 20 19 19 18 17 17 16 15 15 16 15 15 16 16 16 15 14 15 16 17 16 15 16 17 17
17 17 17 18 18 18 17 16 14 9 7 8 11 12 8 6 7 10 11 10 10 10 8 5 6 9 10 11 15 17 20 22 23 23 22 22 22 22 21 19 19 20 19 19 20 20 21 21 21 22 23 23 24 24 24 25 24 24 23 23 23 22 21 21 20 20 19 18 18 18 18 17 18 18 19 19 19 18 17 18 18 17 17 17 18
15 16 16 16 17 17 17 17 17 16 12 8 4 4 6 5 6 7 9 8 7 7 10 10 8 6 7 6 8 11 13 15 18 19 20 20 21 24 24 23 20 19 19 19 19 21 22 21 21 22 23 23 23 24 25 26 26 25 25 25 25 25 24 24 23 23 23 23 22 21 20 20 19 20 22 22 23 23 22 21 20 20 20 21 21
14 15 15 16 16 16 17 17 15 16 16 14 12 8 3 0 2 3 3 5 7 8 10 11 9 7 6 5 6 9 11 12 13 14 17 20 22 24 25 26 24 22 22 22 21 22 23 23 23 22 23 24 24 24 25 26 27 27 26 26 26 27 27 27 27 26 26 26 26 25 24 22 21 21 22 24 25 26 25 23 21 21 22 23 24
14 15 15 15 15 15 16 17 16 16 15 15 15 15 14 12 6 3 2 2 4 7 11 13 13 11 10 9 9 10 10 11 11 12 15 17 18 21 23 25 24 23 25 26 25 25 26 27 27 26 24 24 25 25 26 27 28 28 28 27 27 28 29 29 29 28 28 28 28 27 27 26 24 23 22 23 25 26 25 24 23 22 22 23 24
13 14 14 14 14 14 14 14 15 15 15 14 15 16 16 17 14 10 8 6 5 4 3 9 13 13 13 12 12 11 10 9 10 12 14 14 14 15 19 21 22 22 23 24 26 28 29 29 30 30 29 28 26 26 26 28 29 30 30 30 29 29 30 30 30 29 28 28 28 28 28 29 28 27 26 25 25 25 26 26 26 26 25 25 25
12 12 13 13 13 13 13 13 13 13 14 14 14 14 13 14 15 14 13 10 10 11 8 2 6 10 11 11 12 14 14 12 12 13 14 14 13 14 16 19 21 22 23 23 24 27 28 28 29 31 32 32 31 29 28 27 28 30 31 32 32 31 31 32 32 31 30 30 29 29 29 29 29 29 29 28 28 27 27 27 28 30 30 29 28
11 11 11 12 13 12 12 12 12 12 13 13 13 13 12 13 14 13 13 12 14 16 15 11 4 4 9 9 9 11 12 13 15 17 17 16 15 15 17 20 21 22 23 23 24 25 27 28 30 30 30 32 34 33 32 30 29 28 29 30 32 33 34 33 34 34 34 34 34 33 33 32 32 32 32 31 30 29 29 30 30 32 33 33 32
9 10 10 10 11 11 11 11 11 11 12 12 12 13 12 13 15 14 12 12 13 16 16 15 12 5 2 5 6 6 7 9 13 16 18 18 16 16 17 18 19 20 21 23 24 26 27 27 29 30 30 31 32 33 33 34 34 33 31 31 31 32 33 34 35 35 35 36 37 37 38 38 37 37 36 35 33 31 31 31 32 32 33 33 33
8 9 9 9 11 11 10 10 10 10 12 11 10 10 10 12 14 14 12 11 11 13 15 15 14 11 7 6 6 6 5 6 8 10 12 15 16 16 16 16 17 19 21 23 24 25 27 26 26 27 30 32 33 32 32 33 35 36 36 36 35 34 34 35 37 37 37 36 36 37 38 39 40 41 40 39 38 36 34 34 34 34 34 34 33
8 8 6 9 12 10 9 10 9 9 11 10 9 9 8 9 12 12 11 11 10 12 14 14 14 13 11 9 8 7 7 6 5 7 9 11 13 15 16 17 18 19 20 21 22 23 25 25 24 25 28 30 32 32 32 33 34 34 35 37 37 38 39 39 40 40 40 38 37 37 37 38 40 41 41 40 40 39 39 38 37 35 35 37 36
7 6 7 9 11 9 9 10 10 11 11 10 9 9 8 10 11 10 9 10 11 12 14 13 13 13 13 12 10 8 8 8 5 4 8 10 12 13 15 18 20 20 20 19 20 21 23 24 24 27 29 29 30 32 34 35 34 33 34 36 37 38 40 41 41 40 40 39 39 38 38 38 39 39 39 39 39 40 40 40 39 38 38 40 37
6 7 8 8 8 8 9 10 11 11 11 10 10 10 10 13 13 11 9 9 10 12 14 14 13 13 12 13 12 11 9 8 7 4 4 8 11 13 14 14 15 17 19 20 20 21 23 24 25 27 30 31 31 31 32 33 33 31 30 32 35 37 37 38 39 39 39 38 38 38 38 39 39 38 38 37 37 38 38 38 39 39 40 40 38
6 7 7 7 7 8 8 9 10 11 11 10 10 11 12 15 15 13 11 11 12 15 16 15 15 14 13 13 13 13 12 11 9 6 4 5 7 11 12 12 13 14 15 17 19 20 22 26 27 29 30 31 31 31 31 31 31 30 29 29 31 34 35 35 36 36 36 36 36 37 37 38 38 38 37 36 36 35 34 35 35 36 36 36 36
5 6 7 7 7 7 8 9 10 10 10 11 11 12 13 14 14 13 13 15 17 20 21 20 18 16 15 15 15 15 15 14 12 10 8 7 7 8 10 12 14 15 15 15 16 15 17 22 25 27 30 31 31 32 31 30 29 29 30 30 28 28 31 35 37 35 33 32 32 33 33 34 34 34 34 35 35 33 32 33 33 32 31 31 31
5 5 6 6 7 7 8 8 8 9 10 10 10 11 12 12 12 13 15 18 20 21 21 20 19 19 18 18 18 17 16 15 15 14 13 12 12 12 11 11 13 14 15 15 15 14 15 18 20 22 24 27 29 29 29 29 28 29 30 31 30 28 29 33 36 35 32 29 28 28 29 29 30 31 31 31 32 32 32 32 31 30 29 28 28
5 5 6 6 7 8 8 8 8 8 9 9 9 10 10 10 12 14 15 16 16 16 17 19 20 21 21 20 19 18 17 16 16 15 14 15 16 16 15 14 15 15 15 14 14 15 16 18 19 19 19 20 23 25 26 27 27 27 27 29 31 30 29 29 32 34 34 32 31 30 29 28 28 29 30 31 31 32 32 32 32 31 30 29 29
4 5 7 8 8 8 8 8 9 9 9 8 8 9 9 10 11 12 13 13 12 13 15 18 19 19 19 19 19 19 20 21 20 18 18 19 19 19 18 17 17 17 15 14 13 14 15 16 17 18 18 18 18 20 22 22 23 24 26 27 28 28 28 29 31 33 34 35 35 34 33 32 31 31 32 34 34 34 34 34 34 33 32 32 32
4 6 7 7 8 8 9 10 10 11 11 11 10 10 10 11 12 12 11 11 12 12 13 15 17 18 18 18 19 20 21 22 22 21 20 19 17 17 16 15 15 15 14 13 14 15 15 15 15 16 17 17 17 16 17 18 19 20 22 23 24 25 25 26 28 29 29 31 33 35 36 38 37 36 36 37 37 38 38 39 38 37 36 36 35
5 6 7 8 8 9 10 11 12 13 13 13 13 12 12 13 13 12 11 12 13 13 13 14 16 18 18 16 16 17 18 18 18 18 17 16 15 16 17 18 19 19 18 18 20 21 20 20 21 21 21 21 18 15 15 16 16 16 18 19 20 21 22 24 25 25 25 25 27 30 33 36 38 38 39 40 42 42 43 44 45 44 42 40 38
6 6 7 8 9 10 11 12 13 13 14 14 14 13 13 13 12 12 13 14 14 15 15 14 14 14 14 14 13 13 13 13 13 13 14 14 15 16 18 20 21 21 21 23 26 28 27 27 29 30 30 29 26 22 20 18 17 16 16 17 19 19 21 24 24 24 25 26 26 28 31 34 35 36 39 43 45 45 45 46 48 49 48 46 42
6 7 8 9 10 11 12 13 13 13 13 13 13 13 14 13 13 13 14 14 15 17 17 16 15 13 13 13 13 14 14 14 15 15 15 17 19 21 21 22 24 26 28 31 34 35 33 31 31 32 33 33 34 32 30 27 26 23 21 22 22 22 23 24 23 22 24 26 27 27 29 31 32 34 36 40 42 44 45 45 44 45 46 46 45
7 8 9 9 10 11 12 12 13 14 14 14 14 14 14 14 14 15 15 16 18 19 20 18 16 15 15 15 16 16 16 17 18 19 20 22 26 28 30 31 33 34 35 35 34 33 30 29 30 32 32 31 33 33 32 32 32 30 29 29 29 29 29 29 28 27 27 28 28 28 28 29 32 33 35 36 37 38 39 38 37 37 38 39 40
Wind_Direction
172 172 169 169 168 166 166 164 164 163 165 167 162 165 164 159 171 169 168 180 173 169 171 164 160 157 160 166 164 159 157 155 150 147 150 150 152 151 159 174 171 166 164 163 162 156 162 170 159 157 159 159 158 148 145 142 138 139 139 135 123 109 96 94 104 111 96 87 100 87 41 78 98 129 153 121 117 153 35 87 152 196 349 92 47
173 175 169 170 169 167 168 166 167 165 166 168 164 168 167 163 170 167 171 181 175 174 172 167 166 163 164 163 167 170 161 160 154 149 157 150 145 150 160 174 173 165 163 167 164 155 161 166 163 166 164 164 163 155 157 149 140 141 133 128 124 110 93 98 134 118 81 71 96 89 50 78 104 173 181 191 138 156 99 68 146 169 146 123 17
174 176 171 172 170 168 170 169 170 168 167 168 167 171 169 169 172 167 174 180 177 178 171 171 174 167 165 162 167 178 167 165 156 154 169 156 146 149 148 165 171 162 159 164 160 157 165 164 164 168 165 168 169 162 160 152 147 146 134 126 122 114 112 129 143 117 102 128 121 111 105 75 78 120 158 170 153 162 166 97 115 151 150 132 305
175 176 174 173 172 170 172 172 171 169 170 170 170 172 170 176 177 169 176 179 178 181 172 169 172 169 167 160 166 173 166 170 168 167 173 157 153 154 149 162 165 157 155 156 153 161 172 168 166 166 163 166 167 163 160 158 155 147 140 139 133 129 128 119 113 103 111 145 136 109 129 76 70 95 120 155 152 167 170 131 116 163 166 131 285
176 177 177 176 175 173 172 174 173 171 173 173 173 174 172 180 183 174 177 179 177 180 174 169 171 173 169 163 171 168 165 173 169 169 173 162 162 157 154 162 158 153 148 148 155 164 170 172 171 165 163 166 166 165 164 164 161 153 155 154 143 139 134 131 125 113 149 156 150 142 136 218 319 76 120 171 158 128 156 155 144 164 233 90 155
179 179 179 178 176 175 174 175 176 174 176 176 176 177 175 183 187 181 180 179 178 181 176 172 175 178 172 168 173 170 172 177 167 167 174 177 176 158 156 162 154 149 144 152 166 167 171 176 172 167 167 170 168 166 168 169 164 164 169 157 146 140 134 142 137 126 169 150 127 121 99 55 41 64 92 153 54 116 144 117 129 157 300 90 143
182 181 181 182 178 177 177 176 178 177 177 178 177 178 179 186 190 186 184 180 180 184 180 178 181 182 177 173 176 174 177 177 169 173 177 179 180 164 160 168 170 160 152 166 176 170 175 173 168 168 167 170 172 166 165 166 162 169 175 163 158 153 145 147 138 122 149 132 114 111 75 78 102 69 61 64 62 117 143 124 134 183 236 72 130
184 187 184 184 181 180 180 180 181 179 178 179 179 180 183 190 192 190 188 183 183 188 184 184 187 185 182 178 179 181 181 178 172 174 176 175 179 173 163 167 177 175 163 171 176 172 176 171 168 172 167 166 171 164 157 164 173 180 181 176 177 171 157 149 144 147 138 128 168 160 118 149 140 59 69 111 87 98 117 108 125 159 148 88 126
187 192 188 184 184 184 182 182 183 181 180 180 180 182 186 193 195 192 192 187 187 191 188 189 190 187 186 183 184 184 182 184 176 172 178 173 170 171 166 168 175 178 176 177 175 171 173 172 171 174 169 163 163 160 160 178 191 192 186 182 182 174 162 156 154 155 139 118 198 172 154 160 151 122 136 118 50 100 66 57 93 123 117 102 118
188 189 187 186 187 186 184 185 186 183 182 182 181 181 184 192 196 193 194 191 191 193 191 193 193 190 190 187 186 182 179 190 182 175 183 172 165 170 176 178 175 178 184 180 174 173 172 173 172 170 168 165 163 161 170 190 195 190 184 181 182 177 168 164 163 160 143 120 208 194 174 163 151 160 143 106 223 213 11 42 145 151 142 122 121
188 186 186 188 189 188 187 188 188 186 184 182 183 182 183 191 196 194 194 194 194 194 192 194 194 193 193 189 188 183 181 189 185 182 186 176 171 178 184 186 178 175 179 176 175 177 175 173 173 171 169 169 166 161 168 185 184 180 182 181 184 185 180 171 168 166 152 132 125 179 156 138 138 158 143 145 154 119 332 319 155 155 155 162 171
186 187 187 188 188 188 188 189 191 190 187 184 185 184 184 191 197 195 193 195 196 196 194 194 195 196 195 191 190 188 184 188 189 189 191 185 183 186 187 185 180 177 176 174 178 180 176 174 175 171 168 172 173 167 172 174 167 172 184 181 184 189 191 192 180 171 165 157 145 142 139 125 142 146 144 179 187 232 253 6 53 133 142 151 154
183 189 192 192 190 190 189 189 192 194 190 188 187 186 186 191 197 196 194 195 198 199 196 193 195 197 197 194 193 192 188 189 192 192 194 193 189 188 189 186 181 182 177 174 181 183 176 174 178 172 167 175 176 173 174 168 162 171 186 184 186 194 196 201 197 182 177 175 163 171 201 221 209 202 183 196 213 197 175 8 20 155 153 169 149
189 193 192 191 193 194 192 190 192 195 194 192 191 190 188 190 197 198 196 195 199 201 197 196 197 197 197 196 197 197 193 192 195 193 193 197 194 189 191 191 189 190 180 174 184 185 176 175 181 176 174 178 171 170 176 171 167 172 181 184 184 194 197 200 203 196 186 183 181 200 209 205 221 213 171 190 214 188 204 336 224 203 240 219 190
191 194 189 187 194 198 195 192 193 195 197 196 194 194 191 192 197 198 197 196 198 202 200 198 199 198 197 197 199 201 197 196 198 196 197 202 198 192 193 192 192 195 185 178 184 184 177 177 181 177 177 178 169 169 173 174 177 177 176 181 180 186 197 198 198 196 194 198 201 203 195 180 205 197 164 193 214 211 218 226 212 226 250 265 178
184 187 186 187 197 201 197 195 195 196 200 201 198 197 192 193 198 198 197 197 199 202 201 200 200 199 199 198 200 202 200 199 200 199 201 203 198 198 201 194 187 194 195 187 185 185 181 181 182 181 178 177 174 172 171 175 183 182 175 178 177 183 195 196 193 191 195 213 223 213 199 187 192 198 197 220 216 205 198 172 171 247 256 323 108
182 184 180 181 193 201 200 199 197 197 203 204 202 204 196 193 198 198 196 198 200 200 200 202 203 201 200 199 201 203 201 200 203 203 202 202 199 198 204 200 187 189 197 196 190 188 187 184 185 187 183 181 181 177 175 178 182 181 175 178 180 184 193 190 191 192 191 207 225 230 217 198 193 202 200 203 238 238 221 201 180 227 246 229 76
182 183 179 185 196 202 202 202 200 200 204 205 205 211 207 194 196 198 198 198 199 199 200 203 204 203 204 201 201 205 203 199 204 205 198 200 206 199 199 205 193 184 191 199 198 194 192 188 189 192 189 187 187 184 182 180 184 183 176 183 189 188 195 193 194 197 192 197 204 224 242 213 199 210 199 196 248 273 247 210 184 249 265 226 207
181 183 179 187 198 202 199 197 199 201 204 205 204 208 209 199 195 196 199 201 200 198 199 204 205 204 207 207 203 205 206 200 199 204 197 198 208 201 195 204 201 190 189 196 204 204 197 194 194 195 195 195 191 190 192 185 185 189 182 188 199 196 197 197 199 202 197 200 197 201 226 220 205 217 210 208 241 278 267 199 172 222 251 226 216
95 176 177 174 185 195 194 190 194 198 199 203 206 205 204 203 201 197 197 201 201 198 200 205 206 203 208 212 207 204 207 201 195 201 201 198 205 205 199 200 203 201 195 197 206 209 202 200 199 199 202 204 199 194 198 194 190 193 189 190 203 203 200 200 203 199 197 219 220 207 214 217 210 213 211 209 213 227 245 210 186 220 242 231 228
62 91 142 155 169 190 198 196 195 194 195 203 208 203 197 201 205 202 200 202 203 201 201 206 208 204 207 215 212 206 207 204 198 200 203 200 201 205 203 200 202 205 201 203 208 207 207 207 203 202 205 209 210 203 200 201 197 198 198 196 202 206 205 207 210 203 197 217 232 223 220 223 220 220 220 216 210 211 230 228 209 219 242 244 240
67 63 67 93 139 178 198 200 198 195 193 197 203 201 197 199 201 201 204 206 206 204 201 205 208 206 209 217 217 209 207 207 203 201 204 203 202 203 204 202 202 204 204 208 212 207 208 212 205 203 205 209 220 217 207 207 205 201 204 204 206 210 210 211 217 215 206 211 225 227 225 228 230 235 235 224 212 214 236 248 236 229 241 246 243
66 63 60 76 106 141 171 186 194 197 195 194 198 198 196 195 194 199 209 212 212 209 203 205 207 204 206 215 217 213 210 207 205 204 205 205 205 204 203 202 202 206 205 207 216 214 209 210 206 205 207 208 221 227 217 213 214 210 208 207 209 216 217 214 217 220 216 214 221 225 225 228 231 242 251 240 219 210 220 239 251 258 266 261 245
66 70 71 84 101 120 141 162 179 188 193 198 202 202 199 197 196 203 213 214 215 214 209 210 211 207 207 213 217 215 211 207 204 205 206 205 205 206 205 204 202 206 210 208 212 218 216 213 207 206 210 208 215 229 226 216 217 220 216 210 210 217 222 221 221 223 224 223 225 226 227 228 224 230 245 247 231 216 213 217 225 234 245 243 232
72 84 91 94 99 106 114 129 146 152 160 178 197 203 204 206 208 210 213 214 217 219 216 216 216 213 214 220 224 218 212 209 206 206 208 207 206 206 207 209 204 205 213 214 213 214 218 222 217 211 214 213 213 224 228 219 218 224 225 217 215 220 224 227 229 229 231 232 233 233 234 234 230 229 239 247 244 232 221 217 219 224 230 233 233
73 86 98 99 101 103 102 107 111 110 117 128 154 191 199 205 210 211 212 214 219 221 217 216 216 214 214 219 227 224 214 210 209 209 210 208 208 209 209 211 209 206 211 218 222 218 216 223 228 223 220 220 219 223 228 225 218 221 230 228 222 224 228 230 233 235 237 239 240 241 239 239 240 239 240 244 248 248 238 228 226 232 235 239 245
73 78 86 92 104 109 104 103 100 98 110 113 104 112 174 192 194 194 197 200 211 222 220 219 215 210 211 215 222 224 222 220 217 214 214 212 210 212 212 214 216 212 210 214 223 227 224 223 229 230 226 225 226 226 229 232 223 216 226 235 231 229 233 237 237 238 242 245 247 250 249 245 245 247 245 242 241 246 250 245 237 236 237 240 244
75 75 78 79 86 98 105 113 114 115 126 130 125 105 111 173 185 182 181 175 170 186 199 215 216 211 218 226 224 222 228 233 222 211 213 215 216 216 216 219 221 218 215 215 219 227 232 228 228 232 232 230 232 233 232 234 231 220 218 230 237 234 233 240 244 243 244 244 245 251 256 254 253 255 254 250 244 243 248 253 251 245 242 242 243
76 75 76 76 76 81 92 104 116 139 151 157 172 162 112 114 166 176 178 175 177 176 140 116 180 191 211 230 226 219 225 229 220 209 204 204 213 221 221 222 227 225 221 219 218 224 233 234 232 234 235 232 231 236 238 238 238 232 222 222 230 234 232 235 241 245 246 246 243 242 245 249 255 261 265 263 257 251 248 251 254 253 252 251 250
79 77 77 77 76 76 79 82 84 98 135 161 183 185 157 129 155 173 179 182 189 200 195 178 161 156 175 212 220 218 224 226 221 216 208 201 204 213 217 220 226 228 226 225 223 223 228 235 235 235 238 237 232 233 240 243 243 242 236 228 227 231 234 233 235 238 242 245 246 244 242 242 246 253 262 266 266 263 257 253 251 252 254 256 255
81 78 76 77 76 73 72 72 70 72 80 96 124 186 200 200 196 189 195 208 218 219 214 212 210 185 169 189 212 214 218 219 216 217 218 214 208 208 213 216 216 217 221 225 229 228 227 231 235 235 236 239 236 232 236 244 248 247 245 240 234 233 234 236 237 237 238 240 243 244 245 245 244 246 251 256 259 262 264 261 256 252 252 255 257
81 76 73 72 72 69 67 65 65 64 61 61 62 65 74 232 237 200 197 233 250 255 243 237 242 231 203 201 214 211 206 208 210 211 214 217 216 213 216 219 217 214 213 214 221 227 228 228 231 232 233 236 238 235 233 240 247 250 249 247 244 240 237 237 240 241 242 243 244 246 247 247 248 249 251 254 256 260 265 267 264 258 254 254 256
80 75 69 67 67 66 62 59 59 61 60 55 51 52 52 48 43 43 26 331 273 260 244 240 249 250 235 226 222 215 210 207 207 207 208 213 217 219 222 225 226 225 220 216 216 220 223 226 227 227 228 232 237 238 236 235 241 248 251 250 249 246 242 240 241 244 246 248 249 251 251 250 249 249 251 257 262 266 269 271 271 266 258 255 255
75 73 68 63 62 62 59 55 54 53 55 57 53 49 46 47 55 67 61 38 10 353 262 237 243 247 247 248 241 233 228 221 214 212 214 219 224 226 229 232 234 234 232 229 227 225 224 225 227 228 228 228 231 236 239 240 240 243 247 250 250 249 246 243 241 242 245 249 252 254 256 256 255 251 248 249 256 263 268 269 270 268 265 260 257
72 70 65 60 57 56 55 54 51 46 46 51 54 55 52 48 53 62 62 49 32 33 40 5 250 240 243 253 251 245 242 239 234 228 226 228 231 233 234 236 237 237 238 239 238 236 234 232 231 234 236 235 232 231 235 241 243 243 245 248 249 249 248 246 243 240 240 243 246 250 255 259 260 259 256 251 250 253 259 263 266 267 268 268 264
68 68 65 57 51 49 49 50 49 47 44 41 42 47 53 54 54 52 51 44 36 40 48 49 40 231 233 241 250 253 252 248 246 247 247 245 241 236 233 235 238 239 239 241 239 238 241 239 236 237 240 243 242 238 236 238 241 245 246 247 248 249 249 248 247 245 243 241 241 243 247 252 256 259 261 260 256 251 251 255 260 264 268 272 273
63 64 62 52 44 43 43 43 43 44 41 35 32 32 34 43 53 53 50 45 36 35 42 46 49 57 252 272 293 291 277 262 254 252 252 252 248 241 237 240 245 246 244 245 243 241 242 242 239 238 239 243 246 246 243 240 239 241 244 246 246 247 249 250 250 250 249 248 247 246 245 247 250 254 258 261 262 258 254 252 254 257 262 267 272
53 56 54 36 32 38 38 33 34 37 35 29 29 30 24 31 46 47 43 42 33 26 31 33 36 42 42 20 359 341 319 291 268 256 250 249 251 250 248 250 254 252 247 246 247 248 247 245 244 244 243 244 247 249 248 246 242 241 241 243 245 245 247 250 252 253 255 256 255 253 252 251 251 252 254 256 258 260 259 258 257 255 256 259 262
45 46 32 13 19 30 31 26 20 20 24 21 23 30 16 12 32 40 34 29 18 7 13 19 20 20 19 16 15 14 10 355 306 268 254 250 252 254 254 253 252 250 247 248 251 252 251 248 249 251 249 249 250 251 252 250 247 243 242 243 244 245 247 249 252 254 257 259 259 258 257 256 256 257 257 256 256 257 258 261 261 258 257 258 260
31 11 355 6 18 20 18 15 5 5 15 14 13 22 3 347 7 27 27 18 3 349 353 1 4 4 359 353 352 357 9 16 8 299 259 252 251 253 251 249 249 250 250 253 255 254 252 250 250 252 252 251 250 252 253 252 251 248 246 244 242 243 246 248 250 253 255 258 260 261 260 260 260 260 261 260 260 259 259 261 261 260 260 262 263
19 0 0 15 19 10 6 5 358 359 5 1 360 2 345 335 347 0 4 1 342 329 335 342 344 346 348 346 342 337 341 358 14 2 283 258 252 254 256 255 254 254 254 256 258 259 260 259 256 252 251 252 255 259 260 260 260 258 256 252 246 244 247 249 250 252 254 256 258 261 263 265 265 265 265 264 263 262 262 262 262 262 265 267 266
22 21 27 28 16 5 359 355 354 353 351 350 351 343 328 330 338 341 339 335 324 319 323 326 328 330 331 334 335 330 326 327 333 335 317 277 256 259 269 269 260 256 258 263 266 270 273 272 266 260 256 258 264 269 273 278 276 269 266 264 256 248 249 251 251 252 254 257 258 260 262 266 268 269 269 268 267 266 265 264 264 266 268 269 267
31 30 26 25 15 4 357 353 353 351 347 344 341 331 326 332 336 332 326 321 317 318 319 319 320 321 320 323 325 323 322 320 315 306 288 272 259 261 273 276 266 261 265 270 275 281 285 282 276 270 266 266 267 268 272 282 283 272 267 267 264 258 255 253 251 251 254 260 263 262 263 264 266 267 269 270 271 270 268 267 267 268 269 269 267
30 19 6 11 10 1 0 359 355 354 352 348 342 336 333 334 328 319 316 317 319 321 320 319 317 315 314 314 314 314 315 315 316 311 297 284 274 266 267 275 275 270 273 278 283 290 293 293 293 287 278 273 270 267 268 272 274 273 270 268 268 269 266 259 254 253 254 257 259 259 260 262 262 262 264 266 267 268 268 268 268 269 269 268 265
22 3 338 343 357 358 356 355 353 352 349 348 346 341 338 334 322 314 318 325 328 325 317 314 314 315 316 315 313 312 311 310 313 314 305 296 291 282 276 279 283 283 282 284 290 298 301 302 304 304 297 284 274 270 269 270 271 272 272 269 269 271 270 264 260 258 257 256 257 259 260 259 259 260 260 260 261 262 263 265 267 268 267 264 262
12 346 323 329 349 355 349 345 341 333 327 331 337 335 333 328 321 322 328 329 324 317 311 311 314 316 317 315 311 309 307 304 303 301 297 296 299 300 298 294 290 286 284 287 294 299 301 302 302 305 305 298 285 275 274 278 279 275 273 274 275 274 272 267 262 261 259 256 257 260 260 257 256 257 258 258 259 259 260 261 261 262 261 260 259
1 345 333 338 346 344 340 338 331 321 317 321 325 326 324 320 320 330 333 322 315 315 314 313 315 316 318 317 315 313 312 309 305 301 298 296 295 297 297 291 283 279 280 289 295 289 285 291 295 295 294 290 286 284 284 289 291 283 276 278 279 277 277 273 267 266 266 261 258 257 256 256 259 260 259 260 259 258 257 257 257 256 256 257 257
354 348 344 344 341 336 336 335 329 324 320 318 319 321 323 324 327 330 324 316 315 316 314 313 317 321 324 322 317 315 317 317 312 306 299 292 284 276 270 266 266 270 274 278 282 280 282 289 292 290 287 283 280 283 285 286 287 281 274 275 278 280 282 280 276 276 277 273 268 262 257 257 260 262 262 262 260 257 256 255 255 255 254 255 257
348 347 342 339 335 333 333 332 331 329 327 325 323 320 321 326 329 326 322 321 320 317 316 317 318 319 320 317 311 308 306 305 303 298 292 287 279 270 268 269 272 276 278 278 281 283 287 290 289 287 286 284 281 280 279 276 273 268 264 266 269 270 273 277 281 285 284 279 273 267 261 258 258 261 263 262 260 258 258 257 257 256 254 253 254
341 337 334 333 331 330 331 331 331 329 328 327 323 320 321 324 323 322 322 320 316 312 313 315 314 311 309 306 301 296 288 281 278 275 273 270 263 257 259 266 272 275 278 282 286 289 292 291 287 283 283 283 282 282 281 279 275 270 266 265 264 262 264 269 275 279 278 276 274 269 263 259 258 262 266 264 261 259 259 259 259 258 257 256 256
327 328 329 329 329 329 329 327 325 325 324 322 319 319 320 318 314 314 314 312 310 311 311 313 314 312 308 304 301 298 294 290 287 281 275 272 270 269 270 273 276 280 284 287 290 291 291 291 288 285 284 284 284 285 286 285 282 279 276 274 272 269 266 265 266 267 266 268 270 270 265 260 258 261 266 266 264 261 259 258 257 256 258 260 260